LPE2296 SPJR-SPJC

Flight info

Callsign LPE2296
Flight time 0h 51m
Altitude 35000
Route 0711S07828W 0713S07824W 0715S07819W 0718S07815W DCT VATES DCT NAXUS DCT ATATU
Aircraft A320/M-SDE3FGHIRWY/LB1

Departure

Time 2026-05-06 22:09
Airport Mayor General FAP Armando Revoredo Iglesias Airport (SPJR)

Arrival

Time 2026-05-06 23:00
Airport Jorge Chávez International Airport (SPJC)
Time Latitude Longitude Altitude Speed Heading
2026-05-06 21:48 -7.14273 -78.48917 8805 ft 0 kts 334°
2026-05-06 22:02 -7.14271 -78.48918 8805 ft 2 kts 334°
2026-05-06 22:03 -7.14257 -78.48916 8805 ft 3 kts 40°
2026-05-06 22:03 -7.14239 -78.48900 8805 ft 4 kts 41°
2026-05-06 22:03 -7.14217 -78.48877 8805 ft 5 kts 49°
2026-05-06 22:03 -7.14193 -78.48846 8805 ft 6 kts 30°
2026-05-06 22:04 -7.14148 -78.48852 8805 ft 7 kts 336°
2026-05-06 22:04 -7.14098 -78.48875 8805 ft 8 kts 335°
2026-05-06 22:04 -7.14042 -78.48902 8805 ft 10 kts 337°
2026-05-06 22:04 -7.13969 -78.48933 8805 ft 13 kts 337°
2026-05-06 22:05 -7.13871 -78.48974 8805 ft 17 kts 337°
2026-05-06 22:05 -7.13750 -78.49024 8805 ft 21 kts 338°
2026-05-06 22:05 -7.13605 -78.49083 8805 ft 24 kts 338°
2026-05-06 22:05 -7.13440 -78.49151 8805 ft 27 kts 336°
2026-05-06 22:06 -7.13253 -78.49230 8805 ft 30 kts 336°
2026-05-06 22:06 -7.13088 -78.49301 8805 ft 24 kts 337°
2026-05-06 22:06 -7.12977 -78.49349 8805 ft 14 kts 323°
2026-05-06 22:06 -7.12928 -78.49417 8805 ft 11 kts 355°
2026-05-06 22:07 -7.12897 -78.49387 8805 ft 6 kts 113°
2026-05-06 22:07 -7.12916 -78.49374 8805 ft 0 kts 154°
2026-05-06 22:08 -7.12941 -78.49362 8805 ft 20 kts 155°
2026-05-06 22:08 -7.13319 -78.49203 8805 ft 95 kts 157°
2026-05-06 22:09 -7.14137 -78.48863 8805 ft 157 kts 156°
2026-05-06 22:09 -7.15247 -78.48391 9091 ft 173 kts 156°
2026-05-06 22:09 -7.16378 -78.47972 9705 ft 179 kts 160°
2026-05-06 22:09 -7.17540 -78.47517 10397 ft 180 kts 156°
2026-05-06 22:10 -7.18585 -78.46764 10780 ft 193 kts 131°
2026-05-06 22:10 -7.19368 -78.45560 10892 ft 218 kts 120°
2026-05-06 22:10 -7.20151 -78.44121 10986 ft 247 kts 118°
2026-05-06 22:10 -7.21004 -78.42505 11163 ft 277 kts 117°
2026-05-06 22:11 -7.21948 -78.40686 11449 ft 304 kts 117°
2026-05-06 22:11 -7.22936 -78.38770 12004 ft 320 kts 117°
2026-05-06 22:11 -7.23983 -78.36735 12752 ft 329 kts 117°
2026-05-06 22:11 -7.25039 -78.34682 13559 ft 335 kts 117°
2026-05-06 22:12 -7.26123 -78.32568 14388 ft 341 kts 117°
2026-05-06 22:12 -7.27219 -78.30432 15167 ft 346 kts 117°
2026-05-06 22:12 -7.28537 -78.28378 15917 ft 351 kts 131°
2026-05-06 22:12 -7.30514 -78.26892 16682 ft 356 kts 154°
2026-05-06 22:13 -7.32895 -78.26263 17398 ft 361 kts 175°
2026-05-06 22:13 -7.35396 -78.26540 18118 ft 365 kts 193°
2026-05-06 22:13 -7.37865 -78.27212 18782 ft 370 kts 195°
2026-05-06 22:13 -7.40366 -78.27932 19412 ft 375 kts 195°
2026-05-06 22:14 -7.42870 -78.28656 20021 ft 380 kts 195°
2026-05-06 22:14 -7.45431 -78.29396 20620 ft 384 kts 195°
2026-05-06 22:14 -7.48017 -78.30140 21206 ft 389 kts 195°
2026-05-06 22:14 -7.50652 -78.30897 21788 ft 393 kts 195°
2026-05-06 22:15 -7.53282 -78.31653 22349 ft 397 kts 195°
2026-05-06 22:15 -7.55980 -78.32427 22899 ft 402 kts 195°
2026-05-06 22:15 -7.58682 -78.33202 23422 ft 406 kts 195°
2026-05-06 22:15 -7.61413 -78.33985 23924 ft 410 kts 196°
2026-05-06 22:16 -7.64162 -78.34774 24407 ft 414 kts 196°
2026-05-06 22:16 -7.66970 -78.35547 24872 ft 419 kts 192°
2026-05-06 22:16 -7.69848 -78.35978 25306 ft 422 kts 183°
2026-05-06 22:16 -7.72802 -78.35914 25727 ft 425 kts 172°
2026-05-06 22:17 -7.75730 -78.35396 26163 ft 428 kts 167°
2026-05-06 22:17 -7.78657 -78.34759 26619 ft 430 kts 166°
2026-05-06 22:17 -7.81576 -78.34112 27052 ft 433 kts 166°
2026-05-06 22:17 -7.84528 -78.33455 27470 ft 436 kts 165°
2026-05-06 22:18 -7.87477 -78.32800 27870 ft 438 kts 165°
2026-05-06 22:18 -7.90490 -78.32130 28261 ft 441 kts 165°
2026-05-06 22:18 -7.93475 -78.31467 28632 ft 444 kts 165°
2026-05-06 22:18 -7.96514 -78.30792 28995 ft 447 kts 165°
2026-05-06 22:19 -7.99572 -78.30113 29347 ft 449 kts 165°
2026-05-06 22:19 -8.02612 -78.29440 29684 ft 452 kts 165°
2026-05-06 22:19 -8.05732 -78.28911 30057 ft 455 kts 169°
2026-05-06 22:19 -8.08895 -78.28494 30373 ft 458 kts 169°
2026-05-06 22:20 -8.12056 -78.28093 30676 ft 461 kts 170°
2026-05-06 22:20 -8.15254 -78.27685 30977 ft 463 kts 170°
2026-05-06 22:20 -8.18480 -78.27270 31281 ft 465 kts 170°
2026-05-06 22:20 -8.21686 -78.26857 31587 ft 467 kts 171°
2026-05-06 22:21 -8.24951 -78.26434 31908 ft 469 kts 171°
2026-05-06 22:21 -8.28183 -78.26015 32249 ft 470 kts 171°
2026-05-06 22:21 -8.31414 -78.25596 32612 ft 470 kts 172°
2026-05-06 22:21 -8.34658 -78.25175 32986 ft 470 kts 172°
2026-05-06 22:22 -8.37912 -78.24752 33361 ft 469 kts 172°
2026-05-06 22:22 -8.41123 -78.24335 33730 ft 468 kts 172°
2026-05-06 22:22 -8.44361 -78.23915 34103 ft 467 kts 173°
2026-05-06 22:22 -8.47618 -78.23493 34474 ft 466 kts 173°
2026-05-06 22:23 -8.50820 -78.23081 34817 ft 466 kts 173°
2026-05-06 22:23 -8.54040 -78.22667 34948 ft 463 kts 173°
2026-05-06 22:23 -8.60367 -78.21852 34993 ft 458 kts 173°
2026-05-06 22:24 -8.66727 -78.21030 34997 ft 459 kts 173°
2026-05-06 22:24 -8.73085 -78.20207 34997 ft 459 kts 173°
2026-05-06 22:25 -8.79383 -78.19391 34996 ft 459 kts 173°
2026-05-06 22:25 -8.85748 -78.18565 34995 ft 460 kts 173°
2026-05-06 22:26 -8.91059 -78.17876 34994 ft 459 kts 173°
2026-05-06 22:26 -8.98435 -78.16917 34994 ft 460 kts 173°
2026-05-06 22:27 -9.03742 -78.16227 34994 ft 460 kts 173°
2026-05-06 22:27 -9.10098 -78.15399 34997 ft 461 kts 173°
2026-05-06 22:28 -9.16491 -78.14566 35004 ft 461 kts 173°
2026-05-06 22:28 -9.22840 -78.13739 35017 ft 462 kts 173°
2026-05-06 22:29 -9.29228 -78.12906 35031 ft 462 kts 173°
2026-05-06 22:29 -9.35599 -78.12075 35049 ft 463 kts 172°
2026-05-06 22:30 -9.41981 -78.11242 35067 ft 462 kts 172°
2026-05-06 22:30 -9.48387 -78.10406 35083 ft 463 kts 172°
2026-05-06 22:31 -9.54791 -78.09569 35096 ft 463 kts 172°
2026-05-06 22:31 -9.61170 -78.08736 35107 ft 463 kts 172°
2026-05-06 22:32 -9.67576 -78.07898 35115 ft 464 kts 172°
2026-05-06 22:32 -9.74006 -78.07057 35122 ft 464 kts 172°
2026-05-06 22:33 -9.80417 -78.06218 35126 ft 464 kts 172°
2026-05-06 22:33 -9.86796 -78.05384 35129 ft 464 kts 172°
2026-05-06 22:34 -9.93239 -78.04540 35126 ft 464 kts 172°
2026-05-06 22:34 -9.99615 -78.03704 35119 ft 464 kts 172°
2026-05-06 22:35 -10.06037 -78.02863 35117 ft 464 kts 172°
2026-05-06 22:35 -10.12428 -78.02025 35115 ft 464 kts 172°
2026-05-06 22:36 -10.18803 -78.00873 35112 ft 463 kts 164°
2026-05-06 22:36 -10.24789 -77.98596 35111 ft 462 kts 154°
2026-05-06 22:37 -10.30594 -77.95775 35108 ft 462 kts 153°
2026-05-06 22:37 -10.36388 -77.92943 35106 ft 462 kts 153°
2026-05-06 22:38 -10.42182 -77.90110 35103 ft 463 kts 153°
2026-05-06 22:38 -10.48031 -77.87249 34376 ft 464 kts 153°
2026-05-06 22:39 -10.50902 -77.85849 33797 ft 461 kts 153°
2026-05-06 22:39 -10.53789 -77.84441 33202 ft 458 kts 153°
2026-05-06 22:39 -10.56670 -77.83037 32564 ft 456 kts 153°
2026-05-06 22:39 -10.59534 -77.81640 31981 ft 452 kts 152°
2026-05-06 22:40 -10.62359 -77.80260 31358 ft 450 kts 152°
2026-05-06 22:40 -10.65181 -77.78880 30732 ft 447 kts 152°
2026-05-06 22:40 -10.67948 -77.77527 30144 ft 443 kts 152°
2026-05-06 22:40 -10.70714 -77.76174 29518 ft 440 kts 152°
2026-05-06 22:41 -10.76211 -77.73467 28178 ft 436 kts 152°
2026-05-06 22:41 -10.78938 -77.72121 27543 ft 432 kts 152°
2026-05-06 22:41 -10.81655 -77.70781 26829 ft 430 kts 152°
2026-05-06 22:42 -10.84336 -77.69459 26215 ft 426 kts 153°
2026-05-06 22:42 -10.86991 -77.68152 25574 ft 422 kts 153°
2026-05-06 22:42 -10.89627 -77.66854 24900 ft 419 kts 153°
2026-05-06 22:42 -10.92215 -77.65581 24274 ft 414 kts 154°
2026-05-06 22:43 -10.94793 -77.64314 23676 ft 409 kts 154°
2026-05-06 22:43 -10.97367 -77.63052 23044 ft 404 kts 154°
2026-05-06 22:43 -10.99880 -77.61822 22438 ft 400 kts 154°
2026-05-06 22:43 -11.02366 -77.60605 21829 ft 396 kts 154°
2026-05-06 22:44 -11.04837 -77.59395 21217 ft 393 kts 154°
2026-05-06 22:44 -11.07359 -77.58357 20767 ft 385 kts 162°
2026-05-06 22:44 -11.09952 -77.57710 20390 ft 376 kts 168°
2026-05-06 22:44 -11.12468 -77.57237 19944 ft 369 kts 169°
2026-05-06 22:45 -11.14975 -77.56796 19463 ft 364 kts 170°
2026-05-06 22:45 -11.17476 -77.56364 18968 ft 360 kts 170°
2026-05-06 22:45 -11.19932 -77.55942 18480 ft 356 kts 170°
2026-05-06 22:45 -11.22364 -77.55527 17996 ft 352 kts 170°
2026-05-06 22:46 -11.24753 -77.55123 17517 ft 349 kts 170°
2026-05-06 22:46 -11.27128 -77.54722 17033 ft 346 kts 170°
2026-05-06 22:46 -11.29513 -77.54319 16546 ft 343 kts 170°
2026-05-06 22:46 -11.31844 -77.53927 16077 ft 341 kts 170°
2026-05-06 22:47 -11.34192 -77.53530 15597 ft 338 kts 170°
2026-05-06 22:47 -11.36488 -77.53143 15149 ft 336 kts 170°
2026-05-06 22:47 -11.38817 -77.52750 14674 ft 334 kts 170°
2026-05-06 22:47 -11.41010 -77.52084 13833 ft 336 kts 152°
2026-05-06 22:48 -11.42908 -77.50621 12724 ft 340 kts 137°
2026-05-06 22:48 -11.44582 -77.48963 11799 ft 338 kts 135°
2026-05-06 22:48 -11.46242 -77.47310 11219 ft 326 kts 136°
2026-05-06 22:48 -11.47841 -77.45731 10829 ft 317 kts 136°
2026-05-06 22:49 -11.49400 -77.44210 10650 ft 303 kts 136°
2026-05-06 22:49 -11.50914 -77.42745 10219 ft 298 kts 136°
2026-05-06 22:49 -11.52413 -77.41314 9747 ft 295 kts 137°
2026-05-06 22:49 -11.53911 -77.39904 9381 ft 287 kts 137°
2026-05-06 22:50 -11.55365 -77.38545 9193 ft 275 kts 137°
2026-05-06 22:50 -11.56746 -77.37259 9042 ft 261 kts 138°
2026-05-06 22:50 -11.58072 -77.36032 8697 ft 256 kts 138°
2026-05-06 22:50 -11.59386 -77.34823 8334 ft 250 kts 138°
2026-05-06 22:51 -11.60667 -77.33652 7979 ft 246 kts 138°
2026-05-06 22:51 -11.61957 -77.32515 7654 ft 245 kts 142°
2026-05-06 22:51 -11.63362 -77.31531 7215 ft 247 kts 150°
2026-05-06 22:51 -11.64920 -77.30725 6507 ft 256 kts 154°
2026-05-06 22:52 -11.66553 -77.29936 5964 ft 257 kts 155°
2026-05-06 22:52 -11.68150 -77.29172 5481 ft 255 kts 155°
2026-05-06 22:52 -11.69762 -77.28405 5010 ft 252 kts 155°
2026-05-06 22:52 -11.71338 -77.27657 4487 ft 246 kts 155°
2026-05-06 22:53 -11.72843 -77.26943 4309 ft 229 kts 155°
2026-05-06 22:53 -11.74222 -77.26291 4209 ft 212 kts 155°
2026-05-06 22:53 -11.75523 -77.25675 4106 ft 202 kts 155°
2026-05-06 22:53 -11.76812 -77.25067 4037 ft 208 kts 155°
2026-05-06 22:54 -11.78117 -77.24450 4010 ft 210 kts 155°
2026-05-06 22:54 -11.79446 -77.23822 4005 ft 211 kts 155°
2026-05-06 22:54 -11.80773 -77.23183 3882 ft 210 kts 154°
2026-05-06 22:54 -11.82070 -77.22545 3648 ft 203 kts 154°
2026-05-06 22:55 -11.83322 -77.21927 3417 ft 200 kts 155°
2026-05-06 22:55 -11.84577 -77.21310 3186 ft 199 kts 155°
2026-05-06 22:55 -11.85782 -77.20719 2984 ft 185 kts 155°
2026-05-06 22:55 -11.86926 -77.20156 2784 ft 182 kts 155°
2026-05-06 22:56 -11.88063 -77.19595 2588 ft 180 kts 155°
2026-05-06 22:56 -11.89139 -77.19063 2401 ft 161 kts 155°
2026-05-06 22:56 -11.90088 -77.18595 2200 ft 143 kts 155°
2026-05-06 22:56 -11.90971 -77.18159 2064 ft 140 kts 155°
2026-05-06 22:57 -11.91828 -77.17737 1913 ft 135 kts 155°
2026-05-06 22:57 -11.92666 -77.17324 1761 ft 132 kts 155°
2026-05-06 22:57 -11.93492 -77.16917 1631 ft 131 kts 155°
2026-05-06 22:57 -11.94311 -77.16513 1468 ft 130 kts 155°
2026-05-06 22:58 -11.94846 -77.16252 1373 ft 128 kts 156°
2026-05-06 22:58 -11.95646 -77.15860 1226 ft 129 kts 155°
2026-05-06 22:58 -11.96445 -77.15441 1121 ft 128 kts 154°
2026-05-06 22:58 -11.97513 -77.14905 965 ft 129 kts 155°
2026-05-06 22:59 -11.98055 -77.14640 817 ft 128 kts 156°
2026-05-06 22:59 -11.98852 -77.14249 672 ft 128 kts 156°
2026-05-06 22:59 -11.99657 -77.13867 463 ft 126 kts 154°
2026-05-06 22:59 -12.00060 -77.13659 387 ft 126 kts 155°
2026-05-06 23:00 -12.00835 -77.13287 183 ft 125 kts 156°
2026-05-06 23:00 -12.01604 -77.12913 98 ft 114 kts 156°
2026-05-06 23:00 -12.02112 -77.12666 95 ft 38 kts 154°
2026-05-06 23:01 -12.02258 -77.12594 95 ft 23 kts 155°
2026-05-06 23:01 -12.02418 -77.12516 95 ft 28 kts 152°
2026-05-06 23:01 -12.02608 -77.12418 95 ft 30 kts 146°
2026-05-06 23:01 -12.02731 -77.12285 95 ft 21 kts 123°
2026-05-06 23:02 -12.02814 -77.12167 95 ft 19 kts 127°
2026-05-06 23:02 -12.02896 -77.12100 95 ft 11 kts 154°
2026-05-06 23:02 -12.02962 -77.12068 95 ft 10 kts 154°
2026-05-06 23:02 -12.03026 -77.12037 95 ft 10 kts 154°
2026-05-06 23:03 -12.03090 -77.12006 95 ft 10 kts 154°
2026-05-06 23:03 -12.03157 -77.11970 95 ft 11 kts 137°
2026-05-06 23:03 -12.03176 -77.11897 95 ft 11 kts 123°
2026-05-06 23:03 -12.03240 -77.11854 95 ft 11 kts 155°
2026-05-06 23:04 -12.03307 -77.11822 95 ft 7 kts 150°
2026-05-06 23:04 -12.03308 -77.11791 95 ft 4 kts 68°
2026-05-06 23:04 -12.03295 -77.11762 95 ft 2 kts 66°
2026-05-06 23:04 -12.03295 -77.11761 95 ft 0 kts 66°
2026-05-06 23:10 -12.02774 -77.11808 80 ft 0 kts 65°